User: anonymous
Location: Unspecified
(0.0000°N, 0.0000°E)
Time: 18:32:39
(UTC+02:00)
Language:

Cosmos 1295 Rocket - Orbit

View from above orbital plane
View from above orbital plane
View from above satellite
View from above satellite

Ground track
Ground track

The orbit data is extracted from the following two-line orbital elements,

1 12682U 81077B   14232.10991109  .00000142  00000-0  12497-3 0  7546
2 12682 082.9138 068.0252 0033740 000.9739 116.9032 13.78449988660678
Epoch (UTC): 20 August 2014 02:38:16
Eccentricity: 0.0033740
inclination: 82.9138°
perigee height: 944 km
apogee height: 994 km
right ascension of ascending node: 68.0252°
argument of perigee: 0.9739°
revolutions per day: 13.78449988
mean anomaly at epoch: 116.9032°
orbit number at epoch: 66067

The dashed part of the orbit path shows where the satellite is in the earth's shadow,  

DLR